Home > Time Zones > World Clock > Weather > Serbia > Niš > Past weeks

Flag for Serbia Weather past 2 weeks in Niš, Serbia

Now
72 °F

Passing clouds.


Feels Like: 74 °F
Forecast: 60 / 87 °F
Wind: 2 mph from North

Location: Nis Airport

Current Time: Jul 25, 2014 at 9:39:45 AM

Latest Report: Jul 25, 2014 at 9:00 AM


Visibility: N/A

Pressure: 29.95 "Hg

Humidity: 73%

Dew point: 63 °F

Location of NišLocation

Historic Weather in Niš — Graph

°F

Niš temperature yesterday

Maximum temperature yesterday: 81 °F (at 5:00 PM)
Minimum temperature yesterday: 63 °F (at 5:00 AM)
Average temperature yesterday: 70 °F

Past Weeks' High & Low Weather Summary

 TemperatureHumidityPressure
High93 °F (Jul 21, 3:30 PM)100% (Jul 11, 5:30 AM)30.04 "Hg (Jul 11, 5:30 AM)
Low59 °F (Jul 12, 12:00 AM)27% (Jul 10, 3:30 PM)29.59 "Hg (Jul 10, 5:30 PM)
Average71 °F75%29.88 "Hg
* Reported Jul 10 8:00 AM — Jul 25 8:30 AM, Niš, Weather by CustomWeather, © 2014

Note: Actual official high and low records may vary slightly from our data, if they occured in-between our weather recording intervals... More about our weather records

Advertising

Niš weather history for previous 24 hours

 ConditionsComfort  
Time TempWeatherWind HumidityBarometerVisibility
8:30 AM
Jul 25
70 °FPassing clouds.1 mph78%29.95 "HgN/A
8:00 AM68 °FPassing clouds.2 mph83%29.95 "Hg5 mi
7:30 AM66 °FPassing clouds.2 mph88%29.95 "Hg5 mi
7:00 AM64 °FClear.2 mph94%29.92 "Hg4 mi
6:30 AM61 °FClear.1 mph100%29.92 "Hg4 mi
6:00 AM59 °FClear.No wind100%29.92 "Hg4 mi
5:30 AM61 °FClear.2 mph94%29.92 "Hg10 mi
5:00 AM63 °FClear.3 mph94%29.92 "Hg10 mi
4:30 AM63 °FClear.2 mph94%29.92 "Hg10 mi
4:00 AM63 °FClear.2 mph94%29.92 "Hg10 mi
3:30 AM63 °FClear.2 mph94%29.89 "Hg10 mi
3:00 AM63 °FClear.1 mph94%29.89 "Hg10 mi
2:30 AM63 °FClear.3 mph94%29.89 "Hg10 mi
2:00 AM64 °FClear.2 mph88%29.89 "Hg10 mi
1:30 AM64 °FPassing clouds.3 mph88%29.89 "HgN/A
1:00 AM64 °FClear.3 mph94%29.89 "Hg10 mi
12:30 AM66 °FClear.3 mph88%29.92 "Hg10 mi
12:00 AM66 °FPassing clouds.3 mph88%29.92 "HgN/A
11:30 PM
Jul 24
66 °FClear.3 mph88%29.89 "Hg10 mi
11:00 PM68 °FPassing clouds.3 mph83%29.89 "HgN/A
10:30 PM68 °FClear.5 mph83%29.89 "Hg10 mi
10:00 PM68 °FClear.3 mph88%29.89 "Hg10 mi
9:30 PM68 °FClear.2 mph83%29.89 "Hg10 mi
9:00 PM68 °FSunny.No wind83%29.86 "Hg10 mi
8:30 PM72 °FSunny.No wind78%29.86 "Hg10 mi
8:00 PM75 °FSunny.2 mph65%29.86 "Hg10 mi
7:30 PM77 °FSunny.3 mph61%29.86 "Hg10 mi
7:00 PM79 °FPassing clouds.3 mph58%29.83 "HgN/A
6:30 PM81 °FPassing clouds.3 mph54%29.83 "HgN/A
6:00 PM81 °FPassing clouds.3 mph54%29.83 "HgN/A
5:30 PM81 °FPassing clouds.2 mph54%29.83 "HgN/A
5:00 PM81 °FPassing clouds.3 mph58%29.86 "HgN/A
4:30 PM79 °FPassing clouds.1 mph58%29.86 "HgN/A
4:00 PM79 °FPassing clouds.1 mph61%29.86 "HgN/A
3:30 PM79 °FPassing clouds.1 mph61%29.86 "HgN/A
3:00 PM77 °FPassing clouds.3 mph65%29.86 "HgN/A
2:30 PM75 °FScattered clouds.3 mph69%29.89 "HgN/A
2:00 PM73 °FScattered clouds.2 mph74%29.89 "HgN/A
1:30 PM72 °FScattered clouds.2 mph78%29.89 "HgN/A
1:00 PM72 °FScattered clouds.3 mph78%29.89 "HgN/A
12:30 PM70 °FBroken clouds.2 mph83%29.89 "HgN/A
12:00 PM68 °FBroken clouds.2 mph88%29.89 "HgN/A
11:30 AM68 °FBroken clouds.2 mph88%29.89 "HgN/A
11:00 AM66 °FLight rain. Broken clouds.2 mph94%29.89 "Hg4 mi
10:30 AM66 °FLight rain. Fog.3 mph94%29.89 "Hg3 mi
10:00 AM66 °FLight rain. Fog.3 mph94%29.86 "Hg3 mi
9:30 AM66 °FLight rain. Broken clouds.3 mph94%29.86 "Hg4 mi
9:00 AM68 °FLight rain. Broken clouds.3 mph83%29.86 "Hg4 mi
Weather by CustomWeather, © 2014

See weather overviewHow to use our weather pages